Home > Weather > Philadelphia > Past weeks

Flag for U.S.A. Weather for the Past 2 Weeks in Philadelphia, Pennsylvania, U.S.A.

Now
36 °F

Light snow. Cloudy.


Feels Like: 29 °F
Forecast: 31 / 38 °F
Wind: 9 mph from Northeast

Location: Philadelphia International Airport

Current Time: Feb 9, 2016 at 4:24:38 PM

Latest Report: Feb 9, 2016 at 3:54 PM


Visibility: 5 mi

Pressure: 29.56 "Hg

Humidity: 82%

Dew point: 31 °F

Location of PhiladelphiaLocation

Historic Weather in Philadelphia — Graph

°F

Philadelphia Temperature Yesterday

Maximum temperature yesterday: 44 °F (at 11:54 AM)
Minimum temperature yesterday: 32 °F (at 10:54 PM)
Average temperature yesterday: 39 °F

High & Low Weather Summary for the Past Weeks

 TemperatureHumidityPressure
High62 °F (Feb 3, 10:54 AM)93% (Feb 4, 4:04 AM)30.46 "Hg (Feb 4, 4:04 AM)
Low24 °F (Jan 28, 7:54 AM)31% (Jan 27, 1:54 PM)29.53 "Hg (Jan 29, 4:54 AM)
Average40 °F62%30.01 "Hg
* Reported Jan 25 2:54 PM — Feb 9 2:54 PM, Philadelphia, Weather by CustomWeather, © 2016

Note: Actual official high and low records may vary slightly from our data, if they occured in-between our weather recording intervals... More about our weather records

Advertising

Philadelphia Weather History for the Previous 24 Hours

 ConditionsComfort  
Time TempWeatherWind HumidityBarometerVisibility
2:54 PM
Tue, Feb 9
36 °FLight snow. Cloudy.8 mph82%29.55 "Hg5 mi
2:04 PM37 °FLight snow. Mostly cloudy.8 mph76%29.56 "Hg2 mi
1:54 PM37 °FLight snow. Overcast.8 mph73%29.55 "Hg4 mi
12:54 PM36 °FLight snow. Overcast.8 mph75%29.56 "Hg6 mi
11:54 AM35 °FOvercast.8 mph78%29.59 "Hg10 mi
10:54 AM34 °FOvercast.10 mph82%29.61 "Hg10 mi
9:54 AM34 °FLight snow. Overcast.9 mph79%29.62 "Hg4 mi
8:54 AM33 °FLight snow. Overcast.9 mph82%29.63 "Hg2 mi
7:54 AM33 °FLight snow. Overcast.8 mph82%29.63 "Hg2 mi
6:54 AM32 °FOvercast.13 mph82%29.64 "Hg10 mi
5:54 AM32 °FMostly cloudy.12 mph82%29.64 "Hg10 mi
4:54 AM32 °FMostly cloudy.10 mph82%29.63 "Hg10 mi
3:54 AM32 °FMostly cloudy.9 mph82%29.64 "Hg10 mi
2:58 AM32 °FMostly cloudy.8 mph82%29.67 "Hg10 mi
1:54 AM32 °FLight snow. Ice fog.8 mph82%29.69 "Hg4 mi
1:04 AM32 °FMostly cloudy.9 mph85%29.71 "Hg9 mi
11:54 PM
Mon, Feb 8
32 °FLight snow. Ice fog.7 mph85%29.73 "Hg6 mi
10:54 PM32 °FLight snow. Ice fog.8 mph85%29.75 "Hg2 mi
9:54 PM33 °FLight snow. Low clouds.9 mph78%29.76 "Hg3 mi
8:54 PM36 °FLight rain. Overcast.12 mph62%29.76 "Hg10 mi
7:54 PM37 °FOvercast.9 mph60%29.77 "Hg10 mi
6:54 PM38 °FOvercast.7 mph58%29.76 "Hg10 mi
5:54 PM39 °FMostly cloudy.10 mph57%29.75 "Hg10 mi
4:54 PM42 °FMostly cloudy.3 mph51%29.73 "Hg10 mi
Weather by CustomWeather, © 2016

See weather overviewHow to use our weather pages